STARLINK-11535, 62595

Orbit data source: Space-Track

STARLINK-11535, 62595 is a payload satellite owned by SpaceX/Seattle (US) in LEO that was launched on Mon, 13 Jan 2025 UTC via an FALCON 9 launch vehicle from the Air Force Eastern Test Range (AFETR). Payload-class satellites include a variety of spacecraft equipped with specific instruments for various scientific and technological missions. These include communications satellites like Starlink; space stations such as the ISS; scientific satellites like the Hubble; Earth observation satellites from companies like Planet Labs, Umbra, and HawkEye 360; GPS; miniature CubeSats for education and research; and military/defense satellites.

Loading next visibility...
Identifier
62595, 2025-008J
Orbit
LEO
Country
Flag of USUS
Related business
Manufacturer
SpaceX/Seattle
Mission
Operational Commercial Communications
Bus & Motor
STARLINK V2MD, Unknown motor
Mass
960 kg wet, ~910 kg dry
Launch date (UTC)
2025-01-13 (1 year ago)
Launch vehicle
FALCON 9
Launch site
Air Force Eastern Test Range (AFETR)
Object type
Payload
Rocket body
Debris
Shape & HBR
Box + 2 Pan, 18.1 m
Radar Cross Section
36.964 m², Large (>1 m²)

Expand to show TLE details & history
Last TLE update: 17 hours ago

TLE from 17 hours ago
0 STARLINK-11535
1 62595U 25008J   26171.21793914  .00188570  00000-0  14340-2 0  9998
2 62595  42.9979 227.7641 0002041 212.6038 147.4704 15.70938145 83266
Epoch: 2026-06-20T05:13Z
TLE epoch observation values (Epoch: 2026-06-20T05:13:49.941Z)
Latitude
-0.00002°
Longitude
-119.12973°
Altitude
357.144 km
Speed
7.696 km/s
True Right ascension
15h 11m 03s
True Declination
0° 00' 00"
Sunlit
Object was in full shadow at epoch
Visualization orbit readout
Latitude
Unknown
Longitude
Unknown
Altitude
Unknown
Speed
Unknown
Apparent Right ascension
Unknown
Apparent Declination
Unknown
Sunlit
N/A
Visualization observer readout
Local Sidereal Time
08:41:57
Azimuth
Unknown
Elevation
Unknown
Doppler factor
Unknown
Orbital elements
Apogee altitude
359.571 km
Perigee altitude
356.822 km
Semi-major axis
6,736.334 km
Eccentricity
0.0002
Inclination
42.9979°
RAAN
227.7641°
Arg. of periapsis
212.6038°
True anomaly
147.48297°
Mean anomaly
147.4704°
Eccentric anomaly
147.47669°
Mean motion
3.92562 °/min
Orbital period
91.71 mins
BSTAR
0.001434
Loading maneuver chart data...
Computing Atmospheric mass density...
Loading historical data...
Loading historical data...
Loading historical data...
Loading historical data...
Loading historical data...
Loading historical data...
Loading historical data...

Documentation

Showing up to 5 results
|